• Join FlightAware (Why Join?)
  • Login
  • US Flag GB Flag 
10:43 EDT


 

Airport Tracker/Info


-or-


 

Live Flight TrackerFlight Track Log ✈ KAP29 ✈ 22-Jul-2013 ✈ KBOS - KSLK

Flight Track Log - Related Links

Times and Time Zones

All times are in EDT time to prevent confusion due to time zone crossing. See the KAP29 flight status page for this flight to view local times or setup timezone preferences in your user account.

Time Position Orientation Groundspeed Altitude Reporting Facility
EDT Latitude Longitude Course Direction KTS MPH feet Rate Location/Type
18:45 42.3833 -71.0000 324° Northwest 103 119 400  Level KA90
18:46 42.4000 -71.0167 324° Northwest 134 154 1,100 840 Climbing KA90
18:47 42.4333 -71.0500 324° Northwest 139 160 2,000 900 Climbing KA90
18:48 42.4667 -71.0667 340° North 145 167 3,000 900 Climbing KA90
18:49 42.5000 -71.1000 324° Northwest 132 152 3,800 720 Climbing KA90
18:50 42.5333 -71.1167 340° North 127 146 4,500 600 Climbing KA90
18:52 42.6000 -71.1500 340° North 129 148 5,700 480 Climbing KA90
18:53 42.6333 -71.1833 324° Northwest 142 163 6,100 420 Climbing KA90
18:54 42.6667 -71.2000 340° North 147 169 6,600 420 Climbing KA90
18:55 42.7167 -71.2167 346° North 151 174 7,000 420 Climbing KA90
18:56 42.7500 -71.2500 324° Northwest 154 177 7,500 480 Climbing KA90
18:57 42.7833 -71.2667 340° North 153 176 8,000 300 Climbing KA90
18:58 42.8167 -71.3000 324° Northwest 158 182 8,100  Climbing KA90
18:59 42.8500 -71.3500 312° West 169 194 8,100  Level KA90
19:00 42.8833 -71.4000 312° West 172 198 8,100  Level KA90
19:01 42.9167 -71.4500 312° West 173 199 8,100  Level KA90
19:02 42.9500 -71.5000 312° West 174 200 8,100  Level KA90
19:03 42.9833 -71.5500 312° West 176 203 8,100  Level KA90
19:04 43.0167 -71.6000 312° West 177 204 8,100  Level KA90
19:05 43.0500 -71.6500 312° West 177 204 8,100  Level KA90
19:06 43.0833 -71.6833 324° Northwest 176 203 8,100  Level KA90
19:07 43.1256 -71.7544 309° West 186 214 8,100  Level Boston Center
19:08 43.1572 -71.7969 316° Northwest 179 206 8,100  Level Boston Center
19:09 43.1928 -71.8506 312° West 174 200 8,100  Level Boston Center
19:10 43.2222 -71.8931 314° West 179 206 8,100  Level Boston Center
19:11 43.2581 -71.9469 312° West 179 206 8,100  Level Boston Center
19:12 43.2853 -71.9867 313° West 179 206 8,100  Level Boston Center
19:13 43.3208 -72.0406 312° West 173 199 8,100  Level Boston Center
19:14 43.3481 -72.0803 313° West 167 192 8,100  Level Boston Center
19:15 43.3858 -72.1344 314° West 167 192 8,100  Level Boston Center
19:16 43.4172 -72.1800 313° West 167 192 8,100  Level Boston Center
19:17 43.4486 -72.2256 314° West 167 192 8,100  Level Boston Center
19:18 43.4797 -72.2742 311° West 167 192 8,100  Level Boston Center
19:19 43.5111 -72.3197 314° West 167 192 8,100  Level Boston Center
19:20 43.5444 -72.3686 313° West 167 192 8,100  Level Boston Center
19:21 43.5758 -72.4144 313° West 167 192 8,100  Level Boston Center
19:22 43.6092 -72.4631 313° West 167 192 8,100  Level Boston Center
19:23 43.6403 -72.5089 313° West 167 192 8,100  Level Boston Center
19:24 43.6717 -72.5578 312° West 167 192 8,100  Level Boston Center
19:25 43.7050 -72.6039 315° West 167 192 8,100 -60 Level Boston Center
19:26 43.7381 -72.6528 313° West 167 192 8,000 -60 Descending Boston Center
19:27 43.7672 -72.7044 308° West 167 192 8,000  Level Boston Center
19:28 43.7964 -72.7478 313° West 162 186 8,000  Level Boston Center
19:29 43.8275 -72.7939 313° West 162 186 8,000  Level Boston Center
19:30 43.8606 -72.8403 315° West 162 186 8,000  Level Boston Center
19:31 43.8894 -72.8867 311° West 162 186 8,000  Level Boston Center
19:32 43.9206 -72.9358 311° West 162 186 8,000  Level Boston Center
19:33 43.9539 -72.9850 313° West 162 186 8,000  Level Boston Center
19:34 43.9847 -73.0317 313° West 162 186 8,000  Level Boston Center
19:35 44.0158 -73.0808 311° West 162 186 8,000  Level Boston Center
19:36 44.0508 -73.1333 313° West 162 186 8,000  Level Boston Center
19:37 44.0819 -73.1828 311° West 162 186 8,000  Level Boston Center
19:38 44.1147 -73.2325 313° West 162 186 8,000  Level Boston Center
19:39 44.1458 -73.2792 313° West 162 186 8,000  Level Boston Center
19:40 44.1786 -73.3286 313° West 162 186 8,000  Level Boston Center
19:41 44.2075 -73.3783 309° West 162 186 8,000  Level Boston Center
19:42 44.2383 -73.4253 313° West 162 186 8,000  Level Boston Center
19:43 44.2714 -73.4722 315° West 162 186 8,000  Level Boston Center
19:44 44.3022 -73.5192 313° West 168 193 8,000  Level Boston Center
19:45 44.3328 -73.5661 312° West 168 193 8,000  Level Boston Center
19:46 44.3658 -73.6133 314° West 168 193 8,000  Level Boston Center
19:47 44.3944 -73.6633 309° West 168 193 8,000  Level Boston Center
19:48 44.4231 -73.7075 312° West 168 193 8,000  Level Boston Center
19:49 44.4539 -73.7544 313° West 168 193 8,000  Level Boston Center
19:50 44.4844 -73.8019 312° West 168 193 8,000  Level Boston Center